Terminal Aerodrome Forecast
Issued by NWS

Home | Current Version | Previous Version | Text Only | Print | Product List | Glossary On
Versions: 1 2 3 4 5 6 7 8 9 10 11 12 13 14 15 16 17 18 19 20 21 22 23 24
000
FTUS41 KOKX 311400 AAA
TAFGON
TAF AMD
KGON 311431Z 3115/0112 04008KT P6SM BKN040
     FM311700 08008KT P6SM BKN035
      TEMPO 3121/0101 -RA
     FM010100 04012KT P6SM -RA OVC025
     FM010600 03015G20KT 5SM -RA BR OVC020=

USA.gov is the U.S. government's official web portal to all federal, state and local government web resources and services.